GW5390 Weather Reports


Display with metric or nautical units.
time (UTC)temp
F
wind
direction
speed
MPH
gust
MPH
rain 1hr
in
rain 24hr
in
rain mn
in
humidity
%
barometer
mb
20260507191744 75 214 3.0 4.0 0.00 0.00 0.00 88 1007.6
20260507191241 75 222 1.0 1.0 0.00 0.00 0.00 88 1007.4
20260507190738 75 184 4.0 6.0 0.00 0.00 0.00 88 1007.4
20260507190236 75 124 3.0 3.0 0.00 0.00 0.00 87 1007.4
20260507185735 75 166 4.0 4.0 0.00 0.00 0.00 87 1007.3
20260507185231 75 180 5.0 7.0 0.00 0.00 0.00 87 1007.3
20260507184729 75 192 4.0 6.0 0.00 0.00 0.00 87 1007.5
20260507184227 75 208 3.0 3.0 0.00 0.00 0.00 87 1007.5
20260507183723 75 138 4.0 4.0 0.00 0.00 0.00 86 1007.6
20260507183220 75 198 4.0 4.0 0.00 0.00 0.00 86 1007.4
20260507182717 75 182 3.0 3.0 0.00 0.00 0.00 86 1007.7
20260507182212 75 159 5.0 7.0 0.00 0.00 0.00 85 1007.9
20260507181709 75 175 2.0 2.0 0.00 0.00 0.00 85 1007.6
20260507181206 75 201 4.0 4.0 0.00 0.00 0.00 85 1007.7
20260507180702 76 209 2.0 3.0 0.00 0.00 0.00 84 1007.5
20260507180159 76 181 4.0 6.0 0.00 0.00 0.00 84 1007.8
20260507175655 76 238 5.0 6.0 0.00 0.00 0.00 84 1007.8
20260507175152 76 219 2.0 2.0 0.00 0.00 0.00 84 1007.9
20260507174649 76 190 3.0 4.0 0.00 0.00 0.00 84 1007.8
20260507174148 76 174 5.0 7.0 0.00 0.00 0.00 83 1007.9
20260507173644 76 137 6.0 9.0 0.00 0.00 0.00 83 1007.9
20260507173141 76 170 3.0 3.0 0.00 0.00 0.00 83 1008.0
20260507172637 76 194 5.0 6.0 0.00 0.00 0.00 83 1008.1
20260507172135 76 125 5.0 7.0 0.00 0.00 0.00 82 1008.2
20260507171629 76 155 2.0 6.0 0.00 0.00 0.00 82 1008.0
20260507171127 76 152 6.0 9.0 0.00 0.00 0.00 82 1007.9
20260507170624 76 185 2.0 2.0 0.00 0.00 0.00 81 1008.1
20260507170121 77 168 4.0 7.0 0.00 0.00 0.00 80 1008.2
20260507165616 77 202 4.0 6.0 0.00 0.00 0.00 80 1008.2
20260507165113 77 199 5.0 7.0 0.00 0.00 0.00 81 1008.3
20260507164609 77 274 3.0 6.0 0.00 0.00 0.00 80 1008.4
20260507164106 78 228 4.0 4.0 0.00 0.00 0.00 81 1008.5
20260507163604 78 200 1.0 2.0 0.00 0.00 0.00 80 1008.7
20260507163102 78 176 4.0 6.0 0.00 0.00 0.00 81 1008.9
20260507162601 78 157 5.0 6.0 0.00 0.00 0.00 82 1008.9
20260507162059 78 194 3.0 3.0 0.00 0.00 0.00 82 1009.1
20260507161555 77 196 1.0 3.0 0.00 0.00 0.00 82 1009.2
20260507161051 77 179 3.0 3.0 0.00 0.00 0.00 82 1009.3
20260507160548 77 216 1.0 2.0 0.00 0.00 0.00 81 1009.5
20260507160044 77 188 1.0 2.0 0.00 0.00 0.00 81 1009.5
20260507155539 78 216 3.0 6.0 0.00 0.00 0.00 80 1009.5
20260507155037 78 194 6.0 10.0 0.00 0.00 0.00 80 1009.7
20260507154534 78 194 4.0 4.0 0.00 0.00 0.00 80 1009.8
20260507154031 78 150 6.0 7.0 0.00 0.00 0.00 80 1009.8
20260507153528 79 176 7.0 9.0 0.00 0.00 0.00 80 1009.9
20260507153024 78 197 3.0 3.0 0.00 0.00 0.00 81 1010.0
20260507152519 78 182 4.0 4.0 0.00 0.00 0.00 82 1010.1
20260507152016 78 203 2.0 3.0 0.00 0.00 0.00 82 1010.5
20260507151513 78 201 2.0 3.0 0.00 0.00 0.00 83 1010.4
20260507151010 77 222 6.0 8.0 0.00 0.00 0.00 83 1010.6
20260507150506 77 224 4.0 6.0 0.00 0.00 0.00 85 1010.8
20260507150003 76 203 2.0 3.0 0.00 0.00 0.00 85 1010.9
20260507145458 76 189 1.0 2.0 0.00 0.00 0.00 86 1010.9
20260507144955 75 191 0.0 0.0 0.00 0.00 0.00 86 1011.2
20260507144452 75 179 4.0 7.0 0.00 0.00 0.00 86 1011.2
20260507143949 75 212 0.0 0.0 0.00 0.00 0.00 86 1011.4
20260507143447 75 190 0.0 1.0 0.00 0.00 0.00 86 1011.6
20260507142943 75 192 1.0 2.0 0.00 0.00 0.00 86 1011.5
20260507142439 75 184 2.0 2.0 0.00 0.00 0.00 86 1011.8
20260507141937 76 159 3.0 3.0 0.00 0.00 0.00 85 1011.7
20260507141432 76 191 1.0 1.0 0.00 0.00 0.00 85 1011.9
20260507140929 76 183 4.0 6.0 0.00 0.00 0.00 85 1012.0
20260507140426 76 165 1.0 1.0 0.00 0.00 0.00 85 1012.0
20260507135924 76 186 1.0 2.0 0.00 0.00 0.00 85 1012.2
20260507135420 76 208 3.0 3.0 0.00 0.00 0.00 85 1012.0
20260507134918 76 182 5.0 6.0 0.00 0.00 0.00 84 1012.3
20260507134414 77 154 4.0 6.0 0.00 0.00 0.00 84 1012.4
20260507133910 76 166 1.0 2.0 0.00 0.00 0.00 85 1012.4
20260507133406 76 191 4.0 6.0 0.00 0.00 0.00 84 1012.5
20260507132905 76 217 2.0 3.0 0.00 0.00 0.00 84 1012.7
20260507132400 77 197 4.0 6.0 0.00 0.00 0.00 84 1012.6
20260507131858 76 187 1.0 1.0 0.00 0.00 0.00 85 1012.8
20260507131354 75 187 1.0 1.0 0.00 0.00 0.00 86 1013.0
20260507130851 75 184 1.0 1.0 0.00 0.00 0.00 86 1013.0
20260507130348 75 206 3.0 4.0 0.00 0.00 0.00 86 1013.2
20260507125847 76 205 2.0 2.0 0.00 0.00 0.00 86 1012.9
20260507125344 76 146 2.0 2.0 0.00 0.00 0.00 86 1012.9
20260507124842 76 216 3.0 4.0 0.00 0.00 0.00 86 1013.0
20260507124338 76 193 6.0 7.0 0.00 0.00 0.00 87 1013.3
20260507123837 76 218 3.0 4.0 0.00 0.00 0.00 88 1013.2
20260507123333 76 163 3.0 4.0 0.00 0.00 0.00 88 1013.1
20260507122830 75 211 2.0 2.0 0.00 0.00 0.00 88 1013.2
20260507122325 75 199 2.0 2.0 0.00 0.00 0.00 89 1013.2
20260507121822 75 199 2.0 3.0 0.00 0.00 0.00 89 1013.3
20260507121317 75 206 4.0 4.0 0.00 0.00 0.00 89 1013.3
20260507120814 75 190 2.0 2.0 0.00 0.00 0.00 90 1013.4
20260507120310 75 194 1.0 1.0 0.00 0.00 0.00 90 1013.3
20260507115806 75 190 2.0 3.0 0.00 0.00 0.00 90 1013.3
20260507115306 75 213 2.0 2.0 0.00 0.00 0.00 90 1013.2
20260507114758 75 192 0.0 1.0 0.00 0.00 0.00 90 1013.3
20260507114256 75 199 4.0 4.0 0.00 0.00 0.00 90 1013.4
20260507113753 75 196 0.0 1.0 0.00 0.00 0.00 91 1013.4
20260507113249 74 185 2.0 3.0 0.00 0.00 0.00 91 1013.4
20260507112748 74 188 0.0 0.0 0.00 0.00 0.00 92 1013.5
20260507112244 73 170 1.0 2.0 0.00 0.00 0.00 92 1013.4
20260507111742 73 199 1.0 2.0 0.00 0.00 0.00 92 1013.7
20260507111238 74 207 2.0 2.0 0.00 0.00 0.00 92 1013.3
20260507110734 74 178 2.0 2.0 0.00 0.00 0.00 92 1013.2
20260507110231 73 195 1.0 1.0 0.00 0.00 0.00 93 1013.3
20260507105728 73 198 1.0 1.0 0.00 0.00 0.00 93 1013.2
20260507105224 73 193 0.0 0.0 0.00 0.00 0.00 93 1013.2
20260507104721 73 184 0.0 0.0 0.00 0.00 0.00 93 1013.3
20260507104218 73 183 0.0 0.0 0.00 0.00 0.00 93 1013.2
20260507103714 73 173 0.0 0.0 0.00 0.00 0.00 93 1013.2
20260507103210 73 176 0.0 0.0 0.00 0.00 0.00 93 1013.4
20260507102707 73 175 2.0 3.0 0.00 0.00 0.00 93 1013.2
20260507102203 73 181 0.0 0.0 0.00 0.00 0.00 94 1013.1
20260507101659 73 182 0.0 1.0 0.00 0.00 0.00 94 1013.1
20260507101155 73 185 0.0 0.0 0.00 0.00 0.00 94 1013.0
20260507100653 73 182 0.0 0.0 0.00 0.00 0.00 94 1013.3
20260507100151 73 188 1.0 2.0 0.00 0.00 0.00 94 1013.1
20260507095649 72 218 2.0 3.0 0.00 0.00 0.00 94 1013.1
20260507095145 72 112 1.0 1.0 0.00 0.00 0.00 94 1013.3
20260507094641 72 201 2.0 3.0 0.00 0.00 0.00 94 1013.3
20260507094138 73 179 1.0 3.0 0.00 0.00 0.00 94 1013.0
20260507093635 73 180 0.0 0.0 0.00 0.00 0.00 94 1013.0
20260507093134 73 186 0.0 0.0 0.00 0.00 0.00 94 1013.2
20260507092631 73 163 2.0 2.0 0.00 0.00 0.00 94 1013.2
20260507092127 73 205 3.0 3.0 0.00 0.00 0.00 94 1013.2
20260507091624 73 188 0.0 0.0 0.00 0.00 0.00 94 1013.1
20260507091119 73 192 0.0 0.0 0.00 0.00 0.00 94 1013.1
20260507090616 73 188 0.0 1.0 0.00 0.00 0.00 94 1013.1
20260507090113 73 189 2.0 2.0 0.00 0.00 0.00 94 1013.0
20260507085610 73 179 0.0 1.0 0.00 0.00 0.00 94 1013.0
20260507085106 73 196 0.0 0.0 0.00 0.00 0.00 94 1012.8
20260507084603 73 189 0.0 0.0 0.00 0.00 0.00 94 1012.9
20260507084100 73 191 1.0 1.0 0.00 0.00 0.00 94 1012.9
20260507083556 73 189 0.0 1.0 0.00 0.00 0.00 94 1012.8
20260507083054 73 178 1.0 1.0 0.00 0.00 0.00 94 1012.8
20260507082549 73 179 0.0 1.0 0.00 0.00 0.00 94 1012.8
20260507082046 73 190 0.0 1.0 0.00 0.00 0.00 94 1012.6
20260507081542 73 194 0.0 0.0 0.00 0.00 0.00 94 1012.6
20260507081040 73 195 1.0 1.0 0.00 0.00 0.00 94 1012.5
20260507080535 73 185 1.0 1.0 0.00 0.00 0.00 94 1012.4
20260507080032 73 173 2.0 2.0 0.00 0.00 0.00 94 1012.5
20260507075527 73 186 0.0 0.0 0.00 0.00 0.00 94 1012.5
20260507075024 73 186 1.0 1.0 0.00 0.00 0.00 94 1012.4
20260507074520 73 187 0.0 0.0 0.00 0.00 0.00 94 1012.7
20260507074019 73 189 2.0 2.0 0.00 0.00 0.00 94 1012.8
20260507073515 73 185 0.0 1.0 0.00 0.00 0.00 94 1012.8
20260507073012 73 186 2.0 2.0 0.00 0.00 0.00 94 1012.9
20260507072509 73 188 0.0 0.0 0.00 0.00 0.00 94 1012.9
20260507072006 73 194 1.0 2.0 0.00 0.00 0.00 94 1012.9
20260507071504 73 192 1.0 2.0 0.00 0.00 0.00 94 1013.0
20260507071000 73 193 0.0 1.0 0.00 0.00 0.00 94 1013.1
20260507070457 73 184 1.0 1.0 0.00 0.00 0.00 94 1013.0
20260507065954 73 194 2.0 3.0 0.00 0.00 0.00 94 1013.0
20260507065451 73 187 3.0 4.0 0.00 0.00 0.00 94 1013.1
20260507064948 73 189 1.0 1.0 0.00 0.00 0.00 94 1013.2
20260507064446 73 219 1.0 2.0 0.00 0.00 0.00 94 1013.2
20260507063943 73 211 2.0 2.0 0.00 0.00 0.00 94 1013.3
20260507063440 73 192 0.0 0.0 0.00 0.00 0.00 94 1013.3
20260507062937 73 199 3.0 4.0 0.00 0.00 0.00 94 1013.4
20260507062434 73 179 1.0 2.0 0.00 0.00 0.00 94 1013.5
20260507061932 73 154 2.0 2.0 0.00 0.00 0.00 94 1013.5
20260507061429 73 189 1.0 1.0 0.00 0.00 0.00 94 1013.7
20260507060928 73 188 0.0 0.0 0.00 0.00 0.00 94 1013.9
20260507060424 73 188 0.0 0.0 0.00 0.00 0.00 94 1013.7
20260507055921 73 151 1.0 1.0 0.00 0.00 0.00 94 1013.6
20260507055416 73 193 0.0 0.0 0.00 0.00 0.00 94 1014.0
20260507054914 73 178 0.0 1.0 0.00 0.00 0.00 94 1014.1
20260507054409 73 187 2.0 2.0 0.00 0.00 0.00 94 1013.7
20260507053908 73 195 1.0 2.0 0.00 0.00 0.00 94 1014.0
20260507053405 73 208 1.0 2.0 0.00 0.00 0.00 94 1014.0
20260507052904 73 213 1.0 1.0 0.00 0.00 0.00 94 1014.2
20260507052400 73 185 0.0 0.0 0.00 0.00 0.00 93 1014.1
20260507051857 73 195 1.0 1.0 0.00 0.00 0.00 93 1014.2
20260507051354 73 179 0.0 0.0 0.00 0.00 0.00 93 1014.4
20260507050851 73 208 1.0 2.0 0.00 0.00 0.00 93 1014.4
20260507050348 73 193 0.0 0.0 0.00 0.00 0.00 93 1014.3
20260507045845 73 180 0.0 0.0 0.00 0.00 0.00 93 1014.3
20260507045341 73 211 2.0 3.0 0.00 0.00 0.00 93 1014.5
20260507044838 73 195 1.0 2.0 0.00 0.00 0.00 93 1014.5
20260507044335 73 200 2.0 3.0 0.00 0.00 0.00 93 1014.9
20260507043830 73 191 0.0 1.0 0.00 0.00 0.00 93 1014.7
20260507043327 73 207 1.0 1.0 0.00 0.00 0.00 93 1014.7
20260507042824 73 189 1.0 1.0 0.00 0.00 0.00 93 1014.8
20260507042319 73 200 0.0 0.0 0.00 0.00 0.00 93 1014.8
20260507041817 73 213 2.0 2.0 0.00 0.00 0.00 93 1014.9
20260507041313 73 186 0.0 0.0 0.00 0.00 0.00 93 1014.7
20260507040810 73 197 0.0 1.0 0.00 0.00 0.00 93 1014.9
20260507040306 73 193 1.0 1.0 0.00 0.00 0.00 93 1014.9
20260507035802 73 196 0.0 0.0 0.00 0.00 0.00 93 1014.8
20260507035257 73 208 1.0 2.0 0.00 0.00 0.00 93 1014.9
20260507034756 73 190 1.0 2.0 0.00 0.00 0.00 93 1015.1
20260507034252 73 180 0.0 1.0 0.00 0.00 0.00 93 1014.9
20260507033751 73 204 1.0 1.0 0.00 0.00 0.00 93 1015.2
20260507033248 73 183 2.0 3.0 0.00 0.00 0.00 93 1015.2
20260507032745 73 189 0.0 0.0 0.00 0.00 0.00 93 1015.1
20260507032241 73 196 0.0 0.0 0.00 0.00 0.00 93 1015.5
20260507031738 73 198 0.0 0.0 0.00 0.00 0.00 93 1015.4
20260507031235 73 189 0.0 0.0 0.00 0.00 0.00 93 1015.4
20260507030731 73 186 0.0 1.0 0.00 0.00 0.00 93 1015.3
20260507030229 73 211 1.0 1.0 0.00 0.00 0.00 93 1015.4
20260507025726 73 189 0.0 1.0 0.00 0.00 0.00 93 1015.3
20260507025223 73 192 2.0 2.0 0.00 0.00 0.00 93 1015.4
20260507024721 73 196 0.0 0.0 0.00 0.00 0.00 93 1015.5
20260507024218 73 196 0.0 1.0 0.00 0.00 0.00 93 1015.5
20260507023713 73 197 0.0 0.0 0.00 0.00 0.00 93 1015.6
20260507023211 73 201 0.0 1.0 0.00 0.00 0.00 93 1015.6
20260507022708 73 195 1.0 1.0 0.00 0.00 0.00 93 1015.7
20260507022203 73 172 0.0 0.0 0.00 0.00 0.00 93 1015.8
20260507021700 73 204 2.0 2.0 0.00 0.00 0.00 93 1015.7
20260507021155 73 225 1.0 2.0 0.00 0.00 0.00 93 1015.7
20260507020654 73 180 0.0 1.0 0.00 0.00 0.00 93 1015.7
20260507020149 73 199 2.0 2.0 0.00 0.00 0.00 93 1015.8
20260507015648 73 191 4.0 4.0 0.00 0.00 0.00 93 1015.7
20260507015145 73 204 0.0 1.0 0.00 0.00 0.00 93 1015.8
20260507014641 73 183 1.0 2.0 0.00 0.00 0.00 93 1016.0
20260507014138 73 212 2.0 3.0 0.00 0.00 0.00 92 1015.8
20260507013635 73 172 3.0 3.0 0.00 0.00 0.00 93 1015.8
20260507013132 73 206 2.0 2.0 0.00 0.00 0.00 92 1015.8
20260507012629 73 152 3.0 4.0 0.00 0.00 0.00 93 1015.7
20260507012124 73 188 1.0 2.0 0.00 0.00 0.00 93 1015.8
20260507011623 73 191 0.0 1.0 0.00 0.00 0.00 93 1016.0
20260507011119 73 198 2.0 2.0 0.00 0.00 0.00 93 1015.8
20260507010614 73 163 2.0 2.0 0.00 0.00 0.00 93 1016.1
20260507010110 73 196 0.0 1.0 0.00 0.00 0.00 92 1015.9
20260507005608 73 190 3.0 3.0 0.00 0.00 0.00 93 1015.9
20260507005103 73 213 1.0 1.0 0.00 0.00 0.00 93 1016.0
20260507004600 73 176 3.0 3.0 0.00 0.00 0.00 93 1016.0
20260507004058 73 192 2.0 2.0 0.00 0.00 0.00 93 1016.1
20260507003554 73 181 2.0 2.0 0.00 0.00 0.00 93 1016.1
20260507003049 73 210 2.0 3.0 0.00 0.00 0.00 93 1015.9
20260507002546 73 190 1.0 1.0 0.00 0.00 0.00 93 1016.0
20260507002041 73 169 5.0 7.0 0.00 0.00 0.00 93 1016.3
20260507001538 73 193 0.0 0.0 0.00 0.00 0.00 93 1016.1
20260507001036 73 100 1.0 2.0 0.00 0.00 0.00 93 1016.2
20260507000532 73 206 1.0 2.0 0.00 0.00 0.00 93 1016.3
20260507000027 73 102 1.0 2.0 0.00 0.00 0.00 93 1016.2
20260506235525 73 180 1.0 1.0 0.00 0.00 0.00 93 1016.5
20260506235021 73 185 1.0 1.0 0.00 0.00 0.00 93 1016.3
20260506234519 73 191 2.0 3.0 0.00 0.00 0.00 93 1016.4
20260506234016 73 195 2.0 2.0 0.00 0.00 0.00 93 1016.4
20260506233512 73 201 0.0 1.0 0.00 0.00 0.00 93 1016.3
20260506233009 73 194 0.0 1.0 0.00 0.00 0.00 93 1016.3
20260506232505 73 199 1.0 1.0 0.00 0.00 0.00 93 1016.2
20260506232001 73 243 2.0 2.0 0.00 0.00 0.00 93 1016.4
20260506231458 73 194 0.0 1.0 0.00 0.00 0.00 93 1016.0
20260506230956 73 176 0.0 1.0 0.00 0.00 0.00 93 1016.0
20260506230451 73 201 1.0 1.0 0.00 0.00 0.00 93 1016.1
20260506225948 73 180 2.0 3.0 0.00 0.00 0.00 93 1016.2
20260506225446 73 195 0.0 0.0 0.00 0.00 0.00 93 1016.2
20260506224943 73 170 1.0 2.0 0.00 0.00 0.00 93 1016.0
20260506224440 73 195 2.0 2.0 0.00 0.00 0.00 93 1016.1
20260506223936 73 193 0.0 0.0 0.00 0.00 0.00 93 1016.3
20260506223432 72 201 2.0 3.0 0.00 0.00 0.00 93 1015.9
20260506222929 72 190 1.0 1.0 0.00 0.00 0.00 93 1015.9
20260506222426 72 199 0.0 1.0 0.00 0.00 0.00 93 1016.0
20260506221923 72 177 0.0 1.0 0.00 0.00 0.00 93 1016.0
20260506221420 72 193 0.0 0.0 0.00 0.00 0.00 93 1016.1
20260506220918 72 189 1.0 1.0 0.00 0.00 0.00 93 1015.8
20260506220413 72 182 0.0 0.0 0.00 0.00 0.00 93 1015.7
20260506215910 72 196 0.0 1.0 0.00 0.00 0.00 93 1015.7
20260506215406 72 187 0.0 0.0 0.00 0.00 0.00 93 1015.8
20260506214902 72 183 0.0 1.0 0.00 0.00 0.00 93 1015.8
20260506214359 72 191 0.0 0.0 0.00 0.00 0.00 93 1015.8
20260506213856 73 197 0.0 0.0 0.00 0.00 0.00 93 1015.8
20260506213354 73 188 0.0 0.0 0.00 0.00 0.00 92 1016.0
20260506212851 73 195 1.0 1.0 0.00 0.00 0.00 92 1015.8
20260506212347 73 191 0.0 0.0 0.00 0.00 0.00 92 1015.8
20260506211842 73 194 1.0 1.0 0.00 0.00 0.00 92 1015.7
20260506211338 73 202 1.0 1.0 0.00 0.00 0.00 92 1015.7
20260506210835 73 193 0.0 0.0 0.00 0.00 0.00 92 1015.7
20260506210332 73 201 0.0 1.0 0.00 0.00 0.00 92 1015.8
20260506205829 73 201 1.0 1.0 0.00 0.00 0.00 92 1015.7
20260506205325 73 203 1.0 1.0 0.00 0.00 0.00 92 1015.7
20260506204822 73 198 1.0 1.0 0.00 0.00 0.00 92 1015.7
20260506204320 73 193 0.0 1.0 0.00 0.00 0.00 92 1015.5
20260506203817 73 199 2.0 2.0 0.00 0.00 0.00 92 1015.4
20260506203314 73 194 1.0 1.0 0.00 0.00 0.00 91 1015.5
20260506202811 73 184 1.0 1.0 0.00 0.00 0.00 91 1015.3
20260506202308 73 194 1.0 1.0 0.00 0.00 0.00 91 1015.5
20260506201804 73 191 1.0 2.0 0.00 0.00 0.00 91 1015.2
20260506201302 74 192 2.0 2.0 0.00 0.00 0.00 91 1015.4
20260506200759 74 188 0.0 0.0 0.00 0.00 0.00 91 1015.3
20260506200255 74 195 1.0 1.0 0.00 0.00 0.00 91 1015.3
20260506195751 74 224 3.0 3.0 0.00 0.00 0.00 91 1015.3
20260506195248 74 199 0.0 0.0 0.00 0.00 0.00 90 1015.3
20260506194745 74 198 0.0 0.0 0.00 0.00 0.00 90 1015.5
20260506194241 75 196 1.0 1.0 0.00 0.00 0.00 90 1015.4
20260506193740 75 189 0.0 0.0 0.00 0.00 0.00 90 1015.4
20260506193236 75 165 1.0 1.0 0.00 0.00 0.00 90 1015.4
20260506192732 75 189 0.0 0.0 0.00 0.00 0.00 90 1015.6
20260506192229 75 191 2.0 2.0 0.00 0.00 0.00 90 1015.6